EHBK

Maastricht Aachen Airport

Airport
ICAO code
EHBK
IATA Code
MST
Summary
ICAO Region
EUR
ICAO Territory
Location

Beek, Limburg

Serving
Maastricht
Elevation
375 ft
Coordinates
50° 54' 42" N , 5° 46' 13" E
KCC
Metar
EHBK 160425Z AUTO 23014KT 190V260 9999 FEW016 BKN025 BKN029 05/03 Q1003 REDZ TEMPO 7000 -SHRA FEW020CB

Maastricht Aachen Airport is a regional airport located 5 nm northeast of the city of Maastricht, in the town of Beek, both municipalities in the Limburg province in the Netherlands. The airport is also 15 nm northwest of Aachen, a city in Germany.

Climatology

Temperate Marine climate/Oceanic climate (Köppen climate classification Cfb). Moderately cool summer and comparatively warm winter with a temperature range of only 14°C. Prevailing south-westerly winds from the Atlantic Ocean.

Runways

Designator Length Width Surface Rops
3/21 2500 45 ASP Yes/Yes

SKYbrary Partners:

Safety knowledge contributed by: